OPS 4682 DEB, 17666

Orbit data source: Space-Track

OPS 4682 DEB, 17666 is space debris in LEO originally from a launch on Sat, 03 Apr 1965 UTC launched from the Air Force Western Test Range (AFWTR). Debris objects in space refer to the collection of defunct objects orbiting the Earth. Examples of debris include non-operational satellites, rocket bodies, and fragments generated from explosions, collisions, or faulty payload assembly.

Loading next visibility...
Identifier
17666, 1965-027V
Orbit
LEO
Country
Flag of USUS
Related business
Manufacturer
Unknown
Mission
Spacecraft
Bus & Motor
Unknown
Mass
Unknown
Launch date (UTC)
1965-04-03 (61 years ago)
Launch vehicle
Unknown
Launch site
Air Force Western Test Range (AFWTR)
Object type
Payload
Rocket body
Debris
Shape & HBR
Unknown shape, 0.1 m
Radar Cross Section
Small (<0.1 m²)

Expand to show TLE details & history
Last TLE update: 6 hours ago

TLE from 6 hours ago
0 OPS 4682 DEB
1 17666U 65027V   26036.11153925  .00000883  00000-0  30165-2 0  9996
2 17666  90.2484   9.0119 0042523  71.2093  62.4810 12.97190909932689
Epoch: 2026-02-05T02:40Z
TLE epoch observation values (Epoch: 2026-02-05T02:40:36.991Z)
Latitude
45.96364°
Longitude
13.84493°
Altitude
1,265.239 km
Speed
7.234 km/s
True Right ascension
12h 37m 04s
True Declination
45° 48' 11"
Sunlit
Object was in full shadow at epoch
Visualization orbit readout
Latitude
Unknown
Longitude
Unknown
Altitude
Unknown
Speed
Unknown
Apparent Right ascension
Unknown
Apparent Declination
Unknown
Sunlit
N/A
Visualization observer readout
Local Sidereal Time
10:25:09
Azimuth
Unknown
Elevation
Unknown
Doppler factor
Unknown
Orbital elements
Apogee altitude
1,302.767 km
Perigee altitude
1,237.721 km
Semi-major axis
7,648.381 km
Eccentricity
0.00425
Inclination
90.2484°
RAAN
9.0119°
Arg. of periapsis
71.2093°
True anomaly
62.91421°
Mean anomaly
62.481°
Eccentric anomaly
62.6975°
Mean motion
3.24481 °/min
Orbital period
110.95 mins
BSTAR
0.0030165
Loading maneuver chart data...
Computing Atmospheric mass density...
Loading historical data...
Loading historical data...
Loading historical data...
Loading historical data...
Loading historical data...
Loading historical data...
Loading historical data...

Documentation

Showing up to 5 results
|